Weather in Novogurovsky

Russia / Tula Oblast     54°28′01″N   37°20′21″E
temp.,
°C
wind,
m/s
gust,
m/s
humid.,
%
clouds,
%
prec.,
mm/h
press.,
hPa
HPBL,
m
8 march, mon
mon800:00−8wsw5138633 0.1 998319
03:00−7wsw6138852 0.1 999444
06:00−6wsw61394100 0.1 998635
09:00−6w71289100 0.4 9991078
12:00−6wnw698096 0.2 10021064
15:00−6wnw578398 0.3 1004875
18:00−8wnw348889 0.1 100641
21:00−12nw239263 0.1 100921
9 march, tue
tue900:00−13n239533 0.0 101020
03:00−14n239663 0.0 101229
06:00−17nnw339878 0.0 101446
09:00−15nnw469581 0.1 1016259
12:00−12nnw468786 0.0 1017576
15:00−10nw468493 0.1 1018911
18:00−13nw4789100 0.1 1019189
21:00−17nnw479594 0.1 1022111
10 march, wed
wed1000:00−20nnw349949 0.0 102436
03:00−22nnw339946 0.0 102523
06:00−24nnw33980 0.0 102729
09:00−22n35965 0.0 1029233
12:00−18n358566 0.0 1029479
15:00−15n357952 0.0 1030617
18:00−18n22850 0.0 103020
21:00−21nnw12890 0.0 103220
11 march, thu
thu1100:00−21wnw22910 0.0 103320
03:00−22nw23900 0.0 103320
06:00−22wnw23880 0.0 103320
09:00−18wnw34899 0.0 1034130
12:00−12wnw23810 0.0 1033378
15:00−10w237821 0.0 1032595
18:00−14sw238747 0.0 103220
21:00−17ssw338823 0.0 103220
12 march, fri
fri1200:00−19ssw34840 0.0 103235
03:00−21s44850 0.0 103176
06:00−21s510810 0.0 1029153
09:00−16s7138118 0.0 1027332
12:00−10s81582100 0.0 1025569
15:00−7s101783100 0.0 1022794
18:00−7s111893100 0.7 1019941
21:00−7s111892100 1.9 10171023